period_start,C,m1,H,J0,J1,J2,J3,J4,J5,JA,JB,JC,JD,JJ,JK,JN,#
2016-01-12 00:02:02,0.01,3.16,0.00,23.67,27.65,31.41,14.63,50.56,1023.45,2030.95,2314.97,2442.60,2664.00,599.76,598.43,38.42,0000 0000 0000 0000 000000
2016-01-12 00:07:03,0.02,3.16,0.00,23.69,27.67,31.43,14.57,50.54,1023.45,2030.85,2314.61,2442.06,2663.78,599.82,598.39,38.47,0000 0000 0000 0000 000000
2016-01-12 00:12:05,-0.01,3.16,0.00,23.66,27.69,31.44,14.60,50.52,1023.45,2030.65,2314.16,2442.00,2663.23,599.86,598.62,38.52,0000 0000 0000 0000 000000
2016-01-12 00:17:06,-0.04,3.16,0.00,23.63,27.71,31.51,14.68,50.62,1023.45,2030.19,2314.02,2442.00,2663.01,599.94,598.70,38.57,0000 0000 0000 0000 000000
2016-01-12 00:22:07,-0.00,3.16,0.00,23.58,27.72,31.56,14.66,50.48,1023.45,2030.06,2314.00,2442.00,2663.00,600.04,598.95,38.62,0000 0000 0000 0000 000000
2016-01-12 00:27:08,0.00,3.16,0.00,23.61,27.75,31.55,14.69,50.47,1023.46,2030.00,2313.96,2441.94,2662.98,600.24,599.03,38.67,0000 0000 0000 0000 000000
2016-01-12 00:32:10,0.02,3.16,0.00,23.60,27.76,31.56,14.70,50.41,1023.45,2030.00,2313.70,2441.77,2662.87,600.11,598.94,38.72,0000 0000 0000 0000 000000
2016-01-12 00:37:11,0.04,3.16,0.00,23.56,27.77,31.63,14.67,50.34,1023.46,2030.00,2313.09,2441.30,2662.31,599.85,598.77,38.77,0000 0000 0000 0000 000000
2016-01-12 00:42:12,0.11,3.16,0.00,23.63,27.79,31.57,14.63,50.33,1023.45,2030.00,2312.08,2440.71,2661.68,599.88,598.59,38.82,0000 0000 0000 0000 000000
2016-01-12 00:47:14,0.03,3.17,0.00,23.61,27.80,31.60,14.67,50.47,1023.45,2029.99,2310.50,2440.02,2661.01,600.03,598.88,38.87,0000 0000 0000 0000 000000
2016-01-12 00:52:15,0.01,3.17,0.00,23.65,27.82,31.60,14.72,50.48,1023.45,2029.98,2310.09,2440.01,2660.99,600.48,599.15,38.92,0000 0000 0000 0000 000000
2016-01-12 00:57:16,0.01,3.17,0.00,23.81,27.84,31.50,14.67,50.22,1023.44,2029.96,2309.96,2439.97,2660.78,599.99,598.39,38.97,0000 0000 0000 0000 000000
2016-01-12 01:02:18,0.08,3.17,0.00,23.84,27.86,31.51,14.64,50.54,1023.45,2029.96,2308.99,2439.15,2660.01,599.84,598.17,39.02,0000 0000 0000 0000 000000
2016-01-12 01:07:19,0.28,3.18,0.00,23.92,27.88,31.54,14.66,50.37,1023.43,2029.97,2306.04,2437.31,2657.86,600.13,598.30,39.07,0000 0000 0000 0000 000000
2016-01-12 01:12:20,0.32,3.20,0.00,23.97,27.90,31.55,14.60,50.26,1023.44,2029.91,2301.16,2433.93,2654.17,599.91,597.94,39.13,0000 0000 0000 0000 000000
2016-01-12 01:17:21,0.30,3.21,0.00,23.90,27.90,31.50,14.66,50.39,1023.41,2029.74,2296.66,2430.96,2650.87,599.79,597.98,39.18,0000 0000 0000 0000 000000
2016-01-12 01:22:22,0.15,3.23,0.00,23.54,27.90,31.68,14.62,50.42,1023.15,2029.60,2293.36,2428.78,2648.45,599.80,598.58,39.23,0000 0000 0000 0000 000000
2016-01-12 01:27:24,0.24,3.24,0.00,23.34,27.87,31.73,14.64,50.39,1022.97,2029.66,2289.53,2426.87,2646.14,599.98,599.03,39.28,0000 0000 0000 0000 000000
2016-01-12 01:32:24,0.07,3.24,0.00,23.25,27.85,31.47,14.75,50.52,1022.97,2029.68,2288.02,2425.99,2645.06,600.01,599.13,39.33,0000 0000 0000 0000 000000
2016-01-12 01:37:26,0.05,3.25,0.00,23.18,27.82,31.33,14.81,50.43,1022.96,2029.70,2287.27,2425.63,2644.89,600.28,599.72,39.38,0000 0000 0000 0000 000000
2016-01-12 01:42:27,0.12,3.25,0.00,23.13,27.80,31.28,14.68,50.45,1022.96,2029.82,2285.85,2424.71,2643.94,599.91,599.40,39.43,0000 0000 0000 0000 000000
2016-01-12 01:47:28,0.05,3.26,0.00,23.09,27.78,31.26,14.65,50.44,1022.97,2029.92,2285.02,2424.02,2643.09,599.45,599.10,39.48,0000 0000 0000 0000 000000
2016-01-12 01:52:29,0.01,3.26,0.00,23.07,27.75,31.23,14.76,50.46,1022.98,2029.96,2284.98,2424.02,2643.10,600.18,599.76,39.53,0000 0000 0000 0000 000000
2016-01-12 01:57:31,-0.01,3.26,0.00,23.02,27.73,31.20,14.73,50.32,1022.97,2029.98,2284.98,2424.11,2643.34,600.24,600.04,39.58,0000 0000 0000 0000 000000
2016-01-12 02:02:32,-0.00,3.26,0.00,22.99,27.71,31.15,14.57,50.25,1022.97,2029.99,2284.94,2424.18,2643.54,599.52,599.39,39.63,0000 0000 0000 0000 000000
2016-01-12 02:07:33,-0.02,3.25,0.00,22.99,27.69,31.12,14.75,50.33,1022.96,2029.99,2284.87,2424.71,2643.83,600.05,599.81,39.68,0000 0000 0000 0000 000000
2016-01-12 02:12:34,0.01,3.25,0.00,22.97,27.67,31.14,14.69,50.33,1023.03,2029.99,2284.43,2424.88,2643.93,600.08,599.86,39.73,0000 0000 0000 0000 000000
2016-01-12 02:17:36,0.01,3.26,0.00,22.98,27.65,31.17,14.69,50.38,1023.01,2030.00,2284.06,2424.84,2643.84,600.06,599.79,39.78,0000 0000 0000 0000 000000
2016-01-12 02:22:38,-0.00,3.26,0.00,23.25,27.65,31.12,14.71,50.29,1022.97,2030.02,2284.01,2424.86,2643.86,599.97,599.30,39.83,0000 0000 0000 0000 000000
2016-01-12 02:27:39,0.01,3.26,0.00,23.76,27.67,31.07,14.61,50.34,1022.97,2030.04,2284.02,2424.88,2643.78,600.03,598.23,39.88,0000 0000 0000 0000 000000
2016-01-12 02:32:40,0.02,3.26,0.00,23.96,27.68,31.18,14.50,50.39,1022.97,2030.02,2284.00,2424.66,2643.27,600.03,597.99,39.93,0000 0000 0000 0000 000000
2016-01-12 02:37:42,0.05,3.26,0.00,23.90,27.71,31.34,14.55,50.47,1022.97,2030.02,2283.58,2424.05,2642.89,600.06,598.01,39.99,0000 0000 0000 0000 000000
2016-01-12 02:42:43,0.09,3.26,0.00,23.91,27.73,31.39,14.62,50.62,1023.04,2030.00,2282.23,2423.27,2641.90,599.92,597.99,40.04,0000 0000 0000 0000 000000
2016-01-12 02:47:44,0.11,3.27,0.00,23.95,27.75,31.42,14.62,50.51,1023.22,2030.00,2280.60,2422.18,2640.86,600.00,598.03,40.09,0000 0000 0000 0000 000000
2016-01-12 02:52:46,0.05,3.27,0.00,23.94,27.78,31.46,14.65,50.64,1023.45,2030.00,2279.94,2421.51,2640.04,600.10,598.23,40.14,0000 0000 0000 0000 000000
2016-01-12 02:57:47,0.07,3.27,0.00,23.96,27.80,31.48,14.58,50.59,1023.33,2029.99,2278.87,2420.92,2639.46,599.92,597.95,40.19,0000 0000 0000 0000 000000
2016-01-12 03:02:48,0.07,3.28,0.00,23.99,27.82,31.52,14.65,50.58,1023.44,2029.96,2277.76,2420.11,2638.58,600.19,598.28,40.24,0000 0000 0000 0000 000000
2016-01-12 03:07:49,0.10,3.28,0.00,23.99,27.84,31.54,14.60,50.45,1023.45,2029.90,2276.23,2419.08,2637.21,600.00,598.14,40.29,0000 0000 0000 0000 000000
2016-01-12 03:12:51,0.03,3.29,0.00,23.96,27.86,31.57,14.54,50.45,1023.45,2029.72,2275.26,2418.67,2636.86,600.09,598.24,40.34,0000 0000 0000 0000 000000
2016-01-12 03:17:52,0.04,3.29,0.00,23.94,27.87,31.57,14.67,50.49,1023.47,2029.36,2274.36,2418.02,2636.06,600.01,598.07,40.39,0000 0000 0000 0000 000000
2016-01-12 03:22:53,-0.03,3.29,0.00,23.96,27.89,31.60,14.68,50.31,1023.57,2029.23,2274.00,2417.97,2635.97,600.22,598.41,40.44,0000 0000 0000 0000 000000
2016-01-12 03:27:54,0.05,3.29,0.00,23.93,27.90,31.61,14.72,50.50,1023.50,2029.04,2273.63,2417.68,2635.45,600.31,598.42,40.49,0000 0000 0000 0000 000000
2016-01-12 03:32:55,0.02,3.29,0.00,23.95,27.92,31.62,14.57,50.29,1023.57,2029.00,2273.03,2417.06,2635.01,600.06,598.38,40.54,0000 0000 0000 0000 000000
2016-01-12 03:37:56,0.00,3.29,0.00,23.97,27.93,31.64,14.65,50.46,1023.93,2029.00,2272.99,2417.02,2635.00,599.89,598.22,40.59,0000 0000 0000 0000 000000
2016-01-12 03:42:58,0.00,3.29,0.00,23.98,27.95,31.62,14.61,50.33,1023.94,2029.00,2272.86,2417.01,2634.98,599.87,598.23,40.64,0000 0000 0000 0000 000000
2016-01-12 03:47:59,0.03,3.29,0.00,23.95,27.95,31.65,14.70,50.44,1023.94,2029.00,2272.10,2417.00,2634.57,600.21,598.54,40.69,0000 0000 0000 0000 000000
2016-01-12 03:53:00,0.01,3.29,0.00,23.91,27.96,31.68,14.63,50.48,1023.94,2028.98,2271.99,2416.93,2634.04,599.75,598.21,40.74,0000 0000 0000 0000 000000
2016-01-12 03:58:02,0.03,3.30,0.00,23.94,27.97,31.68,14.61,50.49,1023.94,2028.98,2271.41,2416.62,2634.00,599.98,598.42,40.79,0000 0000 0000 0000 000000
2016-01-12 04:03:03,0.02,3.30,0.00,23.95,27.97,31.68,14.62,50.52,1023.94,2028.98,2271.03,2416.24,2633.99,599.98,598.39,40.84,0000 0000 0000 0000 000000
2016-01-12 04:08:04,0.00,3.30,0.00,23.95,27.98,31.67,14.62,50.56,1023.94,2028.97,2270.95,2416.08,2633.96,600.36,598.73,40.89,0000 0000 0000 0000 000000
2016-01-12 04:13:05,0.02,3.30,0.00,23.95,28.00,31.69,14.61,50.58,1023.95,2028.97,2270.62,2416.02,2633.77,599.83,598.42,40.95,0000 0000 0000 0000 000000
2016-01-12 04:18:06,0.02,3.30,0.00,23.94,28.00,31.70,14.58,50.52,1024.06,2028.93,2270.04,2416.00,2633.11,599.87,598.49,41.00,0000 0000 0000 0000 000000
2016-01-12 04:23:07,-0.01,3.30,0.00,23.95,28.00,31.69,14.69,50.50,1024.18,2028.85,2270.00,2416.00,2633.00,600.28,598.86,41.05,0000 0000 0000 0000 000000
2016-01-12 04:28:09,0.00,3.30,0.00,23.95,28.00,31.68,14.66,50.48,1024.00,2028.80,2269.86,2415.99,2633.00,600.22,598.70,41.10,0000 0000 0000 0000 000000
2016-01-12 04:33:10,0.01,3.30,0.00,23.93,28.00,31.69,14.62,50.52,1023.95,2028.78,2269.35,2415.99,2632.99,599.97,598.37,41.15,0000 0000 0000 0000 000000
2016-01-12 04:38:11,0.01,3.30,0.00,23.93,28.01,31.69,14.66,50.67,1023.95,2028.64,2269.00,2415.79,2632.75,600.31,598.72,41.20,0000 0000 0000 0000 000000
2016-01-12 04:43:12,0.03,3.30,0.00,23.95,28.02,31.68,14.66,50.47,1023.96,2028.32,2268.33,2415.09,2632.05,600.07,598.47,41.25,0000 0000 0000 0000 000000
2016-01-12 04:48:13,0.02,3.30,0.00,23.93,28.02,31.68,14.67,50.48,1023.95,2028.43,2268.00,2415.01,2632.00,600.25,598.72,41.30,0000 0000 0000 0000 000000
2016-01-12 04:53:15,-0.01,3.30,0.00,23.93,28.02,31.71,14.72,50.36,1023.96,2028.28,2267.95,2415.00,2631.97,600.22,598.68,41.35,0000 0000 0000 0000 000000
2016-01-12 04:58:16,0.02,3.30,0.00,23.92,28.02,31.69,14.74,50.40,1024.12,2028.21,2267.35,2414.98,2631.89,600.35,598.88,41.40,0000 0000 0000 0000 000000
2016-01-12 05:03:17,0.02,3.30,0.00,23.94,28.02,31.69,14.61,50.37,1024.16,2028.18,2267.01,2414.90,2631.27,600.13,598.67,41.45,0000 0000 0000 0000 000000
2016-01-12 05:08:19,0.04,3.30,0.00,23.93,28.02,31.70,14.59,50.17,1024.19,2028.17,2266.75,2414.36,2631.03,599.79,598.40,41.50,0000 0000 0000 0000 000000
2016-01-12 05:13:20,0.02,3.31,0.00,23.90,28.01,31.69,14.65,50.30,1024.42,2028.15,2266.02,2414.02,2630.99,599.89,598.46,41.55,0000 0000 0000 0000 000000
2016-01-12 05:18:21,0.10,3.31,0.00,23.89,28.00,31.70,14.64,50.25,1024.51,2028.20,2264.91,2413.57,2630.16,600.12,598.98,41.60,0000 0000 0000 0000 000000
2016-01-12 05:23:23,0.29,3.32,0.00,23.92,28.00,31.67,14.70,50.41,1024.59,2028.17,2261.46,2411.16,2627.59,600.29,599.20,41.65,0000 0000 0000 0000 000000
2016-01-12 05:28:24,0.28,3.34,0.00,23.88,28.00,31.67,14.70,50.53,1024.87,2028.11,2257.51,2408.43,2624.66,599.98,599.11,41.70,0000 0000 0000 0000 000000
2016-01-12 05:33:25,0.38,3.35,0.00,23.87,28.00,31.69,14.67,50.60,1024.85,2028.11,2252.47,2404.90,2621.03,600.32,599.45,41.75,0000 0000 0000 0000 000000
2016-01-12 05:38:27,0.12,3.37,0.00,23.88,28.00,31.68,14.65,50.68,1024.89,2028.08,2249.57,2403.02,2618.99,600.08,599.19,41.81,0000 0000 0000 0000 000000
2016-01-12 05:43:28,0.03,3.37,0.00,23.91,28.00,31.67,14.62,50.76,1024.92,2028.19,2248.99,2402.77,2618.50,599.83,598.90,41.86,0000 0000 0000 0000 000000
2016-01-12 05:48:29,0.04,3.37,0.00,23.87,28.00,31.67,14.64,50.67,1024.92,2028.16,2248.68,2402.26,2618.13,599.40,598.59,41.91,0000 0000 0000 0000 000000
2016-01-12 05:53:31,0.04,3.37,0.00,23.88,28.00,31.67,14.64,50.75,1024.93,2028.36,2248.03,2402.05,2618.00,600.22,599.32,41.96,0000 0000 0000 0000 000000
2016-01-12 05:58:32,-0.01,3.37,0.00,23.93,28.00,31.66,14.65,50.73,1025.09,2028.17,2247.92,2402.00,2617.98,599.83,598.93,42.01,0000 0000 0000 0000 000000
2016-01-12 06:03:33,0.08,3.38,0.00,23.93,28.01,31.66,14.63,50.63,1025.39,2028.18,2246.93,2401.59,2617.27,599.92,599.14,42.06,0000 0000 0000 0000 000000
2016-01-12 06:08:35,0.03,3.38,0.00,23.91,28.02,31.66,14.64,50.76,1025.40,2028.07,2246.05,2401.00,2616.76,599.68,598.98,42.11,0000 0000 0000 0000 000000
2016-01-12 06:13:36,0.01,3.38,0.00,23.92,28.02,31.66,14.69,50.49,1025.42,2028.05,2245.89,2400.96,2616.22,600.00,599.41,42.16,0000 0000 0000 0000 000000
2016-01-12 06:18:37,0.03,3.38,0.00,23.92,28.02,31.66,14.72,50.72,1025.71,2028.03,2245.17,2400.78,2616.02,600.09,599.59,42.21,0000 0000 0000 0000 000000
2016-01-12 06:23:38,0.01,3.38,0.00,23.94,28.02,31.65,14.66,50.71,1025.89,2028.02,2245.00,2400.49,2616.00,599.69,599.25,42.26,0000 0000 0000 0000 000000
2016-01-12 06:28:40,0.01,3.38,0.00,23.90,28.02,31.68,14.66,50.73,1025.90,2028.02,2245.00,2400.17,2616.00,600.36,599.91,42.31,0000 0000 0000 0000 000000
2016-01-12 06:33:41,0.00,3.38,0.00,23.91,28.02,31.67,14.72,50.82,1025.91,2028.01,2244.98,2400.08,2616.00,599.86,599.51,42.36,0000 0000 0000 0000 000000
2016-01-12 06:38:42,0.00,3.38,0.00,23.89,28.02,31.67,14.68,50.66,1025.94,2028.01,2244.89,2400.06,2615.99,600.02,599.65,42.41,0000 0000 0000 0000 000000
2016-01-12 06:43:44,0.01,3.38,0.00,23.91,28.02,31.67,14.66,50.59,1025.92,2028.01,2244.48,2400.04,2615.98,600.13,599.75,42.46,0000 0000 0000 0000 000000
2016-01-12 06:48:45,0.00,3.38,0.00,23.92,28.03,31.65,14.70,50.73,1025.91,2028.01,2244.14,2400.05,2615.98,600.11,599.87,42.51,0000 0000 0000 0000 000000
2016-01-12 06:53:46,0.00,3.38,0.00,23.91,28.04,31.66,14.70,50.64,1025.90,2028.01,2244.03,2400.03,2615.97,599.95,599.60,42.56,0000 0000 0000 0000 000000
2016-01-12 06:58:48,0.00,3.38,0.00,23.91,28.05,31.66,14.70,50.63,1025.90,2028.02,2244.00,2400.03,2615.96,600.21,599.89,42.61,0000 0000 0000 0000 000000
2016-01-12 07:03:49,0.00,3.38,0.00,23.92,28.05,31.66,14.69,50.63,1025.89,2028.01,2244.00,2400.02,2615.93,600.08,599.68,42.67,0000 0000 0000 0000 000000
2016-01-12 07:08:51,0.00,3.38,0.00,23.93,28.05,31.66,14.69,50.63,1025.90,2028.01,2244.00,2400.01,2615.85,599.95,599.64,42.72,0000 0000 0000 0000 000000
2016-01-12 07:13:52,0.00,3.38,0.00,23.96,28.05,31.66,14.75,50.68,1025.91,2028.01,2243.99,2400.01,2615.70,600.24,599.76,42.77,0000 0000 0000 0000 000000
2016-01-12 07:18:53,0.01,3.38,0.00,23.96,28.05,31.68,14.64,50.73,1025.94,2028.00,2243.87,2400.00,2615.30,599.83,599.37,42.82,0000 0000 0000 0000 000000
2016-01-12 07:23:54,0.02,3.39,0.00,23.97,28.05,31.68,14.69,50.59,1026.15,2028.00,2243.23,2400.00,2615.05,600.22,599.82,42.87,0000 0000 0000 0000 000000
2016-01-12 07:28:55,0.00,3.39,0.00,23.95,28.05,31.68,14.75,50.69,1026.38,2028.00,2243.00,2399.99,2615.00,600.32,600.23,42.92,0000 0000 0000 0000 000000
2016-01-12 07:33:56,0.00,3.39,0.00,23.95,28.07,31.70,14.68,50.62,1026.38,2028.00,2242.90,2399.89,2614.98,600.04,599.88,42.97,0000 0000 0000 0000 000000
2016-01-12 07:38:58,0.02,3.39,0.00,23.96,28.07,31.70,14.69,50.64,1026.38,2028.00,2242.42,2399.77,2614.94,600.07,600.00,43.02,0000 0000 0000 0000 000000
2016-01-12 07:43:59,0.01,3.39,0.00,23.97,28.07,31.69,14.74,50.83,1026.41,2028.00,2242.09,2399.75,2614.93,600.26,600.06,43.07,0000 0000 0000 0000 000000
2016-01-12 07:49:00,0.00,3.39,0.00,23.97,28.07,31.70,14.64,50.70,1026.57,2028.00,2242.02,2399.72,2614.88,600.13,599.92,43.12,0000 0000 0000 0000 000000
2016-01-12 07:54:01,-0.01,3.39,0.00,23.97,28.07,31.70,14.63,50.67,1026.58,2028.00,2242.00,2399.72,2614.83,599.98,599.89,43.17,0000 0000 0000 0000 000000
2016-01-12 07:59:03,0.00,3.39,0.00,23.96,28.07,31.67,14.65,50.78,1026.87,2028.00,2242.00,2399.61,2614.65,599.85,599.98,43.22,0000 0000 0000 0000 000000
2016-01-12 08:04:04,0.01,3.39,0.00,23.95,28.07,31.69,14.59,50.70,1026.88,2028.00,2241.99,2399.60,2614.56,599.96,600.06,43.27,0000 0000 0000 0000 000000
2016-01-12 08:09:05,0.01,3.39,0.00,23.94,28.07,31.70,14.70,50.64,1026.88,2028.00,2241.96,2399.31,2614.23,600.20,600.31,43.32,0000 0000 0000 0000 000000
2016-01-12 08:14:06,-0.01,3.39,0.00,23.97,28.07,31.69,14.66,50.58,1026.88,2028.00,2241.92,2399.45,2614.28,599.81,599.92,43.37,0000 0000 0000 0000 000000
2016-01-12 08:19:08,0.02,3.39,0.00,23.98,28.07,31.68,14.69,50.68,1026.89,2028.00,2241.78,2399.27,2614.11,599.94,600.04,43.42,0000 0000 0000 0000 000000
2016-01-12 08:24:09,0.02,3.39,0.00,23.98,28.07,31.69,14.70,50.67,1027.06,2028.00,2241.27,2399.12,2614.04,599.67,599.85,43.47,0000 0000 0000 0000 000000
2016-01-12 08:29:10,0.00,3.39,0.00,23.98,28.07,31.69,14.68,50.67,1027.32,2028.00,2241.08,2399.09,2614.02,599.92,600.30,43.52,0000 0000 0000 0000 000000
2016-01-12 08:34:12,0.00,3.39,0.00,24.00,28.07,31.69,14.69,50.64,1027.36,2028.00,2241.03,2399.08,2614.00,600.12,600.37,43.57,0000 0000 0000 0000 000000
2016-01-12 08:39:13,0.00,3.39,0.00,23.98,28.07,31.70,14.64,50.67,1027.36,2028.00,2241.00,2399.09,2614.01,599.99,600.23,43.63,0000 0000 0000 0000 000000
2016-01-12 08:44:14,-0.00,3.39,0.00,23.96,28.06,31.68,14.60,50.44,1027.39,2028.00,2241.00,2399.07,2614.00,599.67,600.11,43.68,0000 0000 0000 0000 000000
2016-01-12 08:49:15,0.00,3.39,0.00,23.97,28.05,31.69,14.73,50.49,1027.38,2028.00,2241.00,2399.07,2614.00,600.00,600.43,43.73,0000 0000 0000 0000 000000
2016-01-12 08:54:16,0.00,3.39,0.00,23.96,28.05,31.70,14.74,50.74,1027.37,2028.00,2240.97,2399.01,2614.00,600.15,600.61,43.78,0000 0000 0000 0000 000000
2016-01-12 08:59:18,0.00,3.39,0.00,23.99,28.05,31.70,14.73,50.63,1027.36,2028.00,2240.96,2399.05,2614.00,600.20,600.48,43.83,0000 0000 0000 0000 000000
2016-01-12 09:04:19,0.00,3.39,0.00,23.99,28.06,31.69,14.76,50.60,1027.37,2028.00,2240.89,2399.04,2614.00,600.17,600.50,43.88,0000 0000 0000 0000 000000
2016-01-12 09:09:20,0.00,3.39,0.00,24.01,28.07,31.69,14.74,50.58,1027.42,2028.00,2240.82,2399.02,2614.00,600.38,600.66,43.93,0000 0000 0000 0000 000000
2016-01-12 09:14:21,0.01,3.39,0.00,24.01,28.07,31.68,14.66,50.63,1027.68,2028.00,2240.40,2399.02,2614.00,600.03,600.50,43.98,0000 0000 0000 0000 000000
2016-01-12 09:19:23,0.00,3.39,0.00,24.02,28.07,31.69,14.69,50.79,1027.85,2028.00,2240.10,2399.02,2614.00,600.17,600.69,44.03,0000 0000 0000 0000 000000
2016-01-12 09:24:24,0.00,3.39,0.00,24.01,28.07,31.70,14.73,50.79,1027.85,2027.99,2240.03,2399.01,2614.00,600.18,600.43,44.08,0000 0000 0000 0000 000000
2016-01-12 09:29:25,0.00,3.39,0.00,24.02,28.07,31.68,14.78,50.80,1027.85,2027.99,2240.00,2399.00,2613.99,600.47,601.05,44.13,0000 0000 0000 0000 000000
2016-01-12 09:34:26,0.00,3.39,0.00,24.04,28.09,31.69,14.67,50.65,1027.85,2027.99,2240.00,2399.01,2613.98,599.58,600.23,44.18,0000 0000 0000 0000 000000
2016-01-12 09:39:28,0.00,3.39,0.00,24.05,28.10,31.70,14.72,50.67,1027.85,2027.99,2240.00,2399.00,2613.97,599.63,600.10,44.23,0000 0000 0000 0000 000000
2016-01-12 09:44:29,0.00,3.39,0.00,24.03,28.10,31.70,14.73,50.77,1027.85,2027.99,2240.00,2399.00,2613.93,600.03,600.53,44.28,0000 0000 0000 0000 000000
2016-01-12 09:49:31,0.00,3.39,0.00,24.02,28.10,31.70,14.65,50.78,1027.86,2027.99,2240.00,2399.00,2613.86,599.81,600.53,44.33,0000 0000 0000 0000 000000
2016-01-12 09:54:32,0.00,3.39,0.00,24.02,28.10,31.71,14.66,50.63,1027.86,2027.98,2239.98,2399.00,2613.76,599.84,600.40,44.38,0000 0000 0000 0000 000000
2016-01-12 09:59:33,0.00,3.39,0.00,24.00,28.11,31.73,14.67,50.64,1027.87,2027.98,2239.94,2399.00,2613.68,599.98,600.56,44.43,0000 0000 0000 0000 000000
2016-01-12 10:04:34,0.01,3.39,0.00,24.01,28.12,31.72,14.67,50.73,1028.13,2027.98,2239.78,2398.99,2613.42,599.93,600.67,44.48,0000 0000 0000 0000 000000
2016-01-12 10:09:36,0.01,3.40,0.00,24.02,28.12,31.69,14.72,50.69,1028.27,2027.95,2239.18,2398.98,2613.16,600.37,601.18,44.53,0000 0000 0000 0000 000000
2016-01-12 10:14:37,0.00,3.40,0.00,24.02,28.12,31.70,14.68,50.67,1028.33,2027.95,2239.02,2398.98,2613.12,600.22,601.17,44.59,0000 0000 0000 0000 000000
2016-01-12 10:19:39,-0.00,3.40,0.00,24.03,28.12,31.69,14.67,50.67,1028.34,2027.93,2239.00,2398.96,2613.05,599.78,600.72,44.64,0000 0000 0000 0000 000000
2016-01-12 10:24:39,-0.00,3.40,0.00,24.03,28.12,31.71,14.67,50.90,1028.40,2027.90,2239.00,2398.97,2613.02,599.87,600.78,44.69,0000 0000 0000 0000 000000
2016-01-12 10:29:41,-0.00,3.40,0.00,24.06,28.12,31.71,14.74,50.83,1028.76,2027.92,2239.00,2398.98,2613.02,599.84,600.77,44.74,0000 0000 0000 0000 000000
2016-01-12 10:34:42,0.00,3.40,0.00,24.07,28.12,31.70,14.71,50.96,1028.81,2027.94,2238.98,2398.96,2613.01,600.15,601.16,44.79,0000 0000 0000 0000 000000
2016-01-12 10:39:43,-0.00,3.40,0.00,24.08,28.12,31.69,14.63,50.70,1028.72,2027.94,2238.96,2398.96,2613.00,599.89,600.88,44.84,0000 0000 0000 0000 000000
2016-01-12 10:44:44,0.00,3.40,0.00,24.10,28.12,31.69,14.75,50.88,1028.75,2027.92,2238.88,2398.98,2613.00,600.47,601.36,44.89,0000 0000 0000 0000 000000
2016-01-12 10:49:45,0.01,3.40,0.00,24.09,28.12,31.68,14.64,50.86,1028.79,2027.94,2238.52,2398.95,2613.00,599.67,600.70,44.94,0000 0000 0000 0000 000000
2016-01-12 10:54:47,0.01,3.40,0.00,24.08,28.12,31.69,14.72,50.88,1028.79,2027.93,2238.10,2398.91,2613.00,599.93,600.90,44.99,0000 0000 0000 0000 000000
2016-01-12 10:59:48,0.01,3.40,0.00,24.07,28.12,31.71,14.70,50.89,1028.82,2027.94,2238.01,2398.73,2613.00,600.06,601.10,45.04,0000 0000 0000 0000 000000
2016-01-12 11:04:49,0.02,3.40,0.00,24.08,28.12,31.70,14.64,50.87,1028.82,2027.94,2237.99,2398.23,2612.97,599.48,600.50,45.09,0000 0000 0000 0000 000000
2016-01-12 11:09:50,0.01,3.40,0.00,24.11,28.12,31.70,14.70,50.79,1028.82,2027.90,2237.94,2398.03,2612.76,600.29,601.25,45.14,0000 0000 0000 0000 000000
2016-01-12 11:14:52,0.03,3.40,0.00,24.10,28.12,31.71,14.73,50.80,1028.82,2027.89,2237.39,2398.01,2612.30,599.85,600.81,45.19,0000 0000 0000 0000 000000
2016-01-12 11:19:53,0.01,3.40,0.00,24.06,28.12,31.69,14.76,50.84,1028.97,2027.96,2237.07,2398.01,2612.15,600.14,601.30,45.24,0000 0000 0000 0000 000000
2016-01-12 11:24:54,0.00,3.40,0.00,24.05,28.12,31.71,14.67,50.79,1029.28,2027.95,2237.01,2398.01,2612.06,599.98,601.36,45.29,0000 0000 0000 0000 000000
2016-01-12 11:29:55,-0.00,3.40,0.00,24.05,28.12,31.71,14.73,50.67,1029.31,2027.96,2237.00,2398.00,2612.03,600.30,601.52,45.34,0000 0000 0000 0000 000000
2016-01-12 11:34:56,0.00,3.40,0.00,24.08,28.13,31.69,14.73,50.82,1029.31,2027.95,2236.99,2398.00,2612.02,600.36,601.65,45.39,0000 0000 0000 0000 000000
2016-01-12 11:39:58,-0.00,3.40,0.00,24.07,28.14,31.71,14.71,50.88,1029.33,2027.93,2236.97,2398.00,2612.00,600.18,601.49,45.44,0000 0000 0000 0000 000000
2016-01-12 11:44:59,-0.00,3.40,0.00,24.08,28.14,31.70,14.69,50.95,1029.37,2027.90,2236.81,2398.00,2612.00,600.08,601.37,45.49,0000 0000 0000 0000 000000
2016-01-12 11:50:01,0.02,3.40,0.00,24.08,28.13,31.71,14.71,50.92,1029.64,2027.94,2236.51,2398.00,2612.00,599.99,601.59,45.55,0000 0000 0000 0000 000000
2016-01-12 11:55:02,0.01,3.40,0.00,24.09,28.13,31.71,14.71,50.92,1029.80,2027.95,2236.13,2397.99,2612.00,600.06,601.63,45.60,0000 0000 0000 0000 000000
2016-01-12 12:00:03,0.04,3.40,0.00,24.08,28.12,31.70,14.72,50.85,1029.80,2027.95,2235.94,2397.73,2611.71,599.97,601.54,45.65,0000 0000 0000 0000 000000
2016-01-12 12:05:04,0.05,3.41,0.00,24.11,28.12,31.70,14.68,50.78,1029.82,2027.94,2235.09,2397.03,2611.02,600.35,601.79,45.70,0000 0000 0000 0000 000000
2016-01-12 12:10:06,0.02,3.41,0.00,24.11,28.12,31.70,14.79,50.70,1029.81,2027.96,2234.70,2396.98,2610.94,600.00,601.51,45.75,0000 0000 0000 0000 000000
2016-01-12 12:15:07,0.07,3.41,0.00,24.09,28.12,31.70,14.68,50.72,1029.80,2027.95,2233.98,2396.35,2610.20,599.61,601.27,45.80,0000 0000 0000 0000 000000
2016-01-12 12:20:08,0.03,3.41,0.00,24.11,28.12,31.68,14.64,50.67,1029.81,2027.94,2233.14,2395.98,2609.82,599.67,601.17,45.85,0000 0000 0000 0000 000000
2016-01-12 12:25:10,0.01,3.42,0.00,24.12,28.12,31.70,14.65,50.58,1029.96,2027.96,2232.99,2395.96,2609.46,599.71,601.31,45.90,0000 0000 0000 0000 000000
2016-01-12 12:30:11,0.01,3.42,0.00,24.12,28.12,31.69,14.81,50.66,1029.99,2027.96,2232.90,2395.85,2609.13,600.34,602.06,45.95,0000 0000 0000 0000 000000
2016-01-12 12:35:12,0.04,3.42,0.00,24.12,28.12,31.71,14.65,50.57,1029.83,2027.97,2232.27,2395.54,2609.03,600.13,601.55,46.00,0000 0000 0000 0000 000000
2016-01-12 12:40:13,0.01,3.42,0.00,24.11,28.12,31.68,14.70,50.45,1030.00,2027.97,2232.01,2395.10,2609.00,599.76,601.43,46.05,0000 0000 0000 0000 000000
2016-01-12 12:45:15,0.01,3.42,0.00,24.12,28.12,31.70,14.70,50.35,1030.19,2027.97,2231.99,2395.03,2609.00,600.06,601.83,46.10,0000 0000 0000 0000 000000
2016-01-12 12:50:16,-0.00,3.42,0.00,24.15,28.13,31.68,14.78,50.51,1030.17,2027.95,2231.93,2395.00,2608.97,600.11,601.66,46.15,0000 0000 0000 0000 000000
2016-01-12 12:55:17,0.02,3.42,0.00,24.20,28.14,31.69,14.77,50.58,1030.28,2027.97,2231.50,2395.00,2608.95,599.94,601.55,46.20,0000 0000 0000 0000 000000